Location: Newark
(13.8117°N, 3.6025°W)
Time: 04:17:44
(UTC+00:00)

Vanguard 2 - Pass Details

Date: 25 August 2019
Orbit: 554 x 2937 km, 32.9° (Epoch: 15 September)

Event Time Altitude Azimuth Distance (km) Brightness Sun altitude
Rises 12:19:47 0° 294° (WNW) 2,998 10.6 86.8°
Reaches altitude 10° 12:22:43 10° 317° (NW) 2,311 10.1 86.6°
Maximum altitude 12:26:09 17° 356° (N) 2,186 10.1 86.2°
Drops below altitude 10° 12:30:30 10° 34° (NE) 3,071 10.7 85.4°
Sets 12:35:24 0° 53° (NE) 4,564 11.4 84.5°
